TimeCDT,TemperatureF,Dew PointF,Humidity,Sea Level PressureIn,VisibilityMPH,Wind Direction,Wind SpeedMPH,Gust SpeedMPH,PrecipitationIn,Events,Conditions,WindDirDegrees,DateUTC
12:15 AM,61.7,48.4,62,29.95,10.0,SW,5.8,-,N/A,,Clear,220,2012-10-04 05:15:00
12:35 AM,62.4,46.6,56,29.95,10.0,SW,5.8,-,N/A,,Clear,230,2012-10-04 05:35:00
12:55 AM,61.2,47.1,60,29.96,10.0,Calm,Calm,-,N/A,,Clear,0,2012-10-04 05:55:00
1:15 AM,61.7,45.9,56,29.96,10.0,Calm,Calm,-,N/A,,Clear,0,2012-10-04 06:15:00
1:35 AM,58.5,47.7,67,29.97,10.0,ESE,5.8,-,N/A,,Clear,120,2012-10-04 06:35:00
1:55 AM,62.2,44.8,53,29.97,10.0,Calm,Calm,-,N/A,,Clear,0,2012-10-04 06:55:00
2:15 AM,57.7,48.4,71,29.97,10.0,Calm,Calm,-,N/A,,Clear,0,2012-10-04 07:15:00
2:35 AM,57.2,48.0,71,29.97,10.0,ESE,5.8,-,N/A,,Clear,110,2012-10-04 07:35:00
2:55 AM,56.3,48.2,74,29.97,10.0,East,5.8,-,N/A,,Clear,100,2012-10-04 07:55:00
3:15 AM,58.3,46.9,66,29.98,10.0,ENE,4.6,-,N/A,,Clear,70,2012-10-04 08:15:00
3:35 AM,60.6,45.9,58,29.98,10.0,Calm,Calm,-,N/A,,Clear,0,2012-10-04 08:35:00
3:55 AM,61.5,45.5,56,29.98,10.0,Calm,Calm,-,N/A,,Clear,0,2012-10-04 08:55:00
4:15 AM,59.2,46.6,63,29.98,10.0,Calm,Calm,-,N/A,,Clear,0,2012-10-04 09:15:00
4:35 AM,56.5,47.1,71,29.98,10.0,Calm,Calm,-,N/A,,Clear,0,2012-10-04 09:35:00
4:55 AM,57.2,47.8,71,29.98,10.0,Calm,Calm,-,N/A,,Clear,0,2012-10-04 09:55:00
5:15 AM,55.9,48.7,77,29.98,10.0,ESE,4.6,-,N/A,,Clear,110,2012-10-04 10:15:00
5:35 AM,57.2,49.3,75,30.00,10.0,North,5.8,-,N/A,,Clear,350,2012-10-04 10:35:00
5:55 AM,57.2,48.6,73,30.00,10.0,South,3.5,-,N/A,,Clear,190,2012-10-04 10:55:00
6:15 AM,56.5,47.5,72,30.02,10.0,Calm,Calm,-,N/A,,Clear,0,2012-10-04 11:15:00
6:35 AM,55.0,47.3,75,30.02,10.0,Calm,Calm,-,N/A,,Clear,0,2012-10-04 11:35:00
6:55 AM,56.3,47.5,72,30.02,10.0,Calm,Calm,-,N/A,,Clear,0,2012-10-04 11:55:00
7:15 AM,56.5,47.1,71,30.03,10.0,Calm,Calm,-,N/A,,Clear,0,2012-10-04 12:15:00
7:35 AM,54.7,46.8,75,30.04,10.0,Calm,Calm,-,N/A,,Clear,0,2012-10-04 12:35:00
7:55 AM,55.8,46.4,71,30.04,10.0,West,6.9,-,N/A,,Clear,270,2012-10-04 12:55:00
8:15 AM,57.4,46.0,66,30.05,10.0,West,4.6,-,N/A,,Clear,280,2012-10-04 13:15:00
8:35 AM,63.7,45.3,51,30.09,10.0,NW,12.7,27.6,N/A,,Clear,320,2012-10-04 13:35:00
8:55 AM,63.7,46.9,54,30.10,10.0,NW,9.2,-,N/A,,Clear,320,2012-10-04 13:55:00
9:15 AM,63.3,50.9,64,30.13,10.0,North,15.0,-,N/A,,Clear,360,2012-10-04 14:15:00
9:35 AM,64.4,47.1,53,30.15,10.0,North,16.1,23.0,N/A,,Clear,360,2012-10-04 14:35:00
9:55 AM,64.9,45.5,49,30.16,5.0,North,16.1,20.7,N/A,,Haze,360,2012-10-04 14:55:00
10:15 AM,65.5,43.7,45,30.19,7.0,North,19.6,24.2,N/A,,Clear,360,2012-10-04 15:15:00
10:35 AM,65.8,42.8,43,30.21,5.0,NNW,19.6,25.3,N/A,,Haze,340,2012-10-04 15:35:00
10:55 AM,66.2,42.4,42,30.22,7.0,North,17.3,-,N/A,,Clear,360,2012-10-04 15:55:00
11:15 AM,67.5,42.6,41,30.23,7.0,NNW,12.7,19.6,N/A,,Clear,340,2012-10-04 16:15:00
11:35 AM,68.0,41.7,38,30.24,7.0,NNW,16.1,-,N/A,,Clear,330,2012-10-04 16:35:00
11:55 AM,68.4,41.2,37,30.24,7.0,NNW,16.1,20.7,N/A,,Clear,340,2012-10-04 16:55:00
12:35 PM,69.6,40.5,35,30.24,10.0,NNW,19.6,-,N/A,,Clear,340,2012-10-04 17:35:00
12:55 PM,70.9,40.8,34,30.24,10.0,NNW,13.8,-,N/A,,Clear,340,2012-10-04 17:55:00
1:15 PM,71.6,40.8,33,30.23,10.0,NNW,15.0,20.7,N/A,,Clear,340,2012-10-04 18:15:00
1:35 PM,72.7,41.0,32,30.23,10.0,North,13.8,-,N/A,,Clear,360,2012-10-04 18:35:00
1:55 PM,73.8,41.0,31,30.21,7.0,NW,11.5,-,N/A,,Clear,320,2012-10-04 18:55:00
2:15 PM,74.3,40.8,30,30.20,10.0,NNW,6.9,-,N/A,,Clear,330,2012-10-04 19:15:00
2:35 PM,74.7,40.8,30,30.19,10.0,NNW,10.4,-,N/A,,Clear,340,2012-10-04 19:35:00
2:55 PM,75.4,41.2,29,30.19,7.0,NNW,10.4,-,N/A,,Clear,330,2012-10-04 19:55:00
3:35 PM,76.5,40.6,28,30.17,10.0,North,9.2,-,N/A,,Clear,350,2012-10-04 20:35:00
3:55 PM,76.6,41.0,28,30.16,10.0,NNW,9.2,-,N/A,,Clear,340,2012-10-04 20:55:00
4:15 PM,76.8,40.6,27,30.16,10.0,North,3.5,-,N/A,,Clear,350,2012-10-04 21:15:00
4:35 PM,77.0,40.5,27,30.16,10.0,Calm,Calm,-,N/A,,Clear,0,2012-10-04 21:35:00
4:55 PM,77.7,41.0,27,30.15,10.0,ENE,3.5,-,N/A,,Clear,60,2012-10-04 21:55:00
5:35 PM,77.9,41.5,27,30.14,10.0,NE,3.5,-,N/A,,Clear,50,2012-10-04 22:35:00
5:55 PM,77.5,41.9,28,30.14,10.0,NE,4.6,-,N/A,,Clear,50,2012-10-04 22:55:00
6:15 PM,77.4,42.1,28,30.14,10.0,ENE,4.6,-,N/A,,Clear,60,2012-10-04 23:15:00
6:35 PM,77.0,42.6,29,30.13,10.0,ENE,5.8,-,N/A,,Clear,70,2012-10-04 23:35:00
6:55 PM,75.4,44.4,33,30.13,10.0,East,5.8,-,N/A,,Clear,100,2012-10-04 23:55:00
7:15 PM,72.5,46.9,40,30.13,10.0,ESE,5.8,-,N/A,,Clear,110,2012-10-05 00:15:00
8:15 PM,65.1,50.5,59,30.13,10.0,ESE,6.9,-,N/A,,Clear,120,2012-10-05 01:15:00
9:15 PM,63.5,50.2,62,30.14,10.0,SE,5.8,-,N/A,,Clear,130,2012-10-05 02:15:00
9:35 PM,62.1,50.4,65,30.14,10.0,ESE,5.8,-,N/A,,Clear,120,2012-10-05 02:35:00
10:15 PM,61.9,50.2,65,30.14,10.0,ESE,4.6,-,N/A,,Clear,120,2012-10-05 03:15:00
10:35 PM,61.5,50.2,66,30.14,10.0,East,4.6,-,N/A,,Clear,100,2012-10-05 03:35:00
10:55 PM,60.1,50.2,70,30.14,10.0,ESE,4.6,-,N/A,,Clear,120,2012-10-05 03:55:00
11:15 PM,59.0,50.9,74,30.14,10.0,East,4.6,-,N/A,,Clear,100,2012-10-05 04:15:00
11:35 PM,58.5,51.1,76,30.14,10.0,Calm,Calm,-,N/A,,Clear,0,2012-10-05 04:35:00
11:55 PM,58.3,51.1,77,30.14,10.0,Calm,Calm,-,N/A,,Clear,0,2012-10-05 04:55:00